#timestamp,LO_Frequency,Hit,StdDev 
1523181615.5,286046999.0,N
1523181635.4,286047001.1,N
1523181655.2,286046998.2,N
1523181675.0,286046999.7,N
1523181676.0,286046999.7,N
1523181695.8,286047001.8,N
1523181715.6,286047002.5,N
1523181735.5,286047002.3,N
1523181755.3,286047000.5,N
1523181775.1,286047000.8,N
1523181795.9,286047001.1,N
1523181815.7,286047001.2,N
1523181835.6,286047000.6,N
1523181855.4,286046998.7,N
1523181875.2,286046998.9,N
1523181895.1,286046998.7,N
1523181896.0,286046998.7,N
1523181915.8,286046997.5,N
1523181935.6,286046997.6,N
1523181955.5,286046996.8,N
1523181975.3,286046996.9,N
1523181995.1,286046997.7,N
1523182015.9,286046997.9,N
1523182035.7,286046996.6,N
1523182055.6,286046995.1,N
1523182105.4,286047002.1,E
1523182115.4,286047000.1,N
1523182135.2,286047001.8,P
1523182155.0,286047003.5,P
1523182155.9,286047003.5,N
1523182175.8,286047005.8,Y
1523182195.6,286046999.7,P
1523182215.4,286046998.9,N
1523182235.3,286046998.4,N
1523182255.1,286046999.6,N
1523182275.9,286046996.6,N
1523182295.7,286046999.5,N
1523182315.5,286046996.8,N
1523182335.4,286046996.5,N
1523182355.2,286046995.8,N
1523182375.0,286046995.1,N
1523182376.0,286046995.1,N
1523182395.8,286046994.0,N
1523182415.6,286046994.6,N
1523182435.5,286046994.7,N
1523182455.3,286046991.7,Y
1523182475.1,286046995.0,P
1523182495.9,286046999.6,N
1523182515.7,286046997.1,N
1523182535.6,286046997.5,N
1523182555.4,286046997.6,N
1523182575.2,286046995.4,Y
1523182595.1,286046996.5,P
1523182596.0,286046996.5,P
1523182615.8,286046997.7,P
1523182635.6,286046999.1,N
1523182655.5,286046999.6,N
1523182675.3,286046999.5,N
1523182695.2,286046998.6,N
1523182715.9,286046998.9,N
1523182735.7,286046998.3,N
1523182755.6,286047002.6,N
1523182775.4,286047000.6,N
1523182795.2,286047000.5,N
1523182815.1,286047000.5,N
1523182816.0,286047000.5,N
1523182835.8,286046998.5,N
1523182855.7,286046998.9,N
1523182875.5,286046997.2,N
1523182895.3,286046999.2,N
1523182915.2,286046998.9,N
1523182935.0,286046999.0,N
1523182935.9,286046999.0,N
1523182955.7,286046998.9,N
1523182975.6,286046999.3,N
1523182995.4,286047000.7,N
1523183015.3,286046998.7,N
1523183035.1,286046999.1,N
1523183036.0,286046999.1,N
1523183055.8,286046999.5,N
1523183075.7,286046999.5,N
1523183095.5,286046999.2,N
1523183115.3,286046996.8,N
1523183135.2,286046998.7,N
1523183155.0,286046996.5,Y
1523183155.9,286046996.5,P
1523183175.8,286046999.4,N
1523183195.6,286046999.4,N
1523183215.4,286047001.2,N
1523183235.3,286046998.8,N
1523183255.1,286046998.1,N
1523183275.9,286047000.6,N
1523183295.7,286047000.9,N
1523183315.5,286047001.1,N
1523183335.4,286046998.3,N
1523183355.2,286047000.5,N
1523183375.0,286046998.7,N
1523183375.9,286046998.7,N
1523183395.8,286046999.0,N
1523183415.6,286046998.1,N
1523183435.5,286046998.8,N
1523183455.3,286046999.1,N
1523183475.1,286046999.0,N
1523183495.9,286046997.1,N
1523183515.7,286046999.0,N
1523183535.5,286046999.2,N
1523183555.4,286046999.4,N
1523183575.2,286046997.1,N
1523183595.1,286046996.5,N
1523183596.0,286046996.5,N
1523183615.8,286046996.6,N
1523183635.6,286046999.0,N
1523183655.5,286047000.6,N
1523183675.3,286047001.0,N
1523183695.1,286047001.1,N
1523183715.9,286047001.1,N
1523183735.7,286047001.0,N
1523183755.6,286047000.7,N
1523183775.4,286047000.6,N
1523183795.2,286046998.6,N
1523183815.1,286046998.9,N
1523183816.0,286046998.9,N
1523183835.8,286046999.1,N
1523183855.7,286046999.5,N
1523183875.5,286046998.6,N
1523183895.3,286047000.3,N
1523183915.2,286047001.2,N
1523183935.0,286047001.1,N
1523183935.9,286047001.1,N
1523183955.7,286047000.4,N
1523183975.6,286046998.2,N
1523183995.4,286046998.7,N
1523184015.3,286047001.2,N
1523184035.1,286047000.4,N
1523184036.0,286047000.4,N
1523184055.8,286047001.1,N
1523184075.7,286046998.1,N
1523184095.5,286046998.9,N
1523184115.3,286046998.3,N
1523184135.2,286046999.6,N
1523184155.0,286046997.4,N
1523184155.9,286046997.4,N
1523184175.8,286046999.0,N
1523184195.6,286047000.6,N
1523184215.4,286046998.8,N
1523184235.3,286047000.9,N
1523184255.1,286047002.4,N
1523184275.9,286047000.7,N
1523184295.7,286046998.8,N
1523184315.5,286047000.5,N
1523184335.4,286047000.9,N
1523184355.2,286046999.7,N
1523184375.0,286047001.7,N
1523184375.9,286047001.7,N
1523184395.8,286047002.9,N
1523184415.6,286047000.4,N
1523184435.5,286046998.5,N
1523184455.3,286046999.1,N
1523184475.1,286046997.0,N
1523184495.9,286046996.8,N
1523184515.7,286047000.0,N
1523184535.5,286047002.3,N
1523184555.4,286047000.1,N
1523184575.2,286046999.7,N
1523184595.1,286047002.8,N
1523184596.0,286047002.8,N
1523184615.8,286046999.8,N
1523184635.6,286047000.8,N
1523184655.5,286046999.0,N
1523184675.3,286046999.0,N
1523184695.1,286046996.6,N
1523184715.9,286046998.6,N
1523184735.7,286046998.7,N
1523184755.6,286046998.6,N
1523184775.4,286046998.7,N
1523184795.2,286047000.8,N
1523184815.1,286047001.1,N
1523184816.0,286047001.1,N
1523184835.8,286047000.8,N
1523184855.6,286046998.3,N
1523184875.5,286046998.7,N
1523184895.3,286046999.2,N
1523184915.2,286046997.3,N
1523184935.9,286046999.6,N
1523184955.7,286046998.4,N
1523184975.6,286046998.8,N
1523184995.4,286046998.5,N
1523185015.2,286046997.4,N
1523185035.1,286046998.6,N
1523185036.0,286046998.6,N
1523185055.8,286046996.9,N
1523185075.7,286046999.4,N
1523185095.5,286046999.2,N
1523185115.3,286046996.7,N
1523185135.2,286046999.2,N
1523185155.0,286046999.0,N
1523185155.9,286046999.0,N
1523185175.8,286047000.1,N
1523185195.6,286047002.5,N
